sat.trackr.live / text

‹ back to catalog

INTELSAT 16 (IS-16)

NORAD 36397 · 2010-006A

PAYLOAD ACTIVE UNKNOWN

§ Identity

Operator
Country
ITSO
Launch date
2010-02-12
Launch site
TYMSC
Launch vehicle
Mass (kg)
RCS (m²)
266.95

Purposes: comms

External: N2YO · Heavens-Above · Gunter

§ Orbital elements

Epoch: 2026-05-25T03:02:38.776416Z

Period
1,436.11 min
Inclination
0.0145°
Eccentricity
0.0002722
Mean motion
1.00270593 rev/d
Perigee alt
35,775.5 km
Apogee alt
35,798.4 km
Semi-major
42,165.1 km
B*
0.0000e+0
RAAN
298.4165°
Arg perigee
160.1693°
Mean anomaly
113.5979°
Rev number
5,942

§ Raw data

INTELSAT 16 (IS-16)1 36397U 10006A   26145.12683769 -.00000247  00000+0  00000+0 0  99972 36397   0.0145 298.4165 0002722 160.1693 113.5979  1.00270593 59426

JSON: /api/v1/satellites/36397 · /tle

For live sub-satellite position, see the globe view (requires WebGL).

§ Visibility from observer

Set your observer location to see the next 7 days of passes ≥ 10°. The values pass through the URL so the page stays shareable.

No JS? Fill the form by hand. The geolocation button needs JavaScript.